Fort Yukon, AK

12:13 PM AKDT on July 27, 2017 (GMT -0800)
Fort Yukon

Weather History for PFYU - October, 2013

Change the Weather History Date:

Wednesday, October 2, 2013

  Actual Average Record
Temperature  
Mean Temperature 36 °F -  
Max Temperature 41 °F 35 °F 66 °F (2003)
Min Temperature 28 °F 22 °F 10 °F (1996)
Degree Days  
Heating Degree Days 30    
Moisture  
Dew Point 27 °F    
Average Humidity 79    
Maximum Humidity 86    
Minimum Humidity 49    
Precipitation  
Precipitation 0.00 in - - ()
Sea Level Pressure  
Sea Level Pressure 29.98 in    
Wind  
Wind Speed 5 mph (NE)    
Max Wind Speed 8 mph    
Max Gust Speed -    
Visibility 10 miles    
Events      
Averages and records for this station are not official NWS values.
T = Trace of Precipitation, MM = Missing Value Source: NWS Daily Summary

Daily Weather History Graph

Daily Weather History Graph

Search for Another Location

Airport or City:

Trip Planner

Search our weather history database for the weather conditions in past years. The results will help you decide how hot, cold, wet, or windy it might be!

Date:

Astronomy

Oct. 02, 2013 Rise Set
Actual Time 7:57 AM AKDT 7:01 PM AKDT
Civil Twilight 7:04 AM AKDT 7:53 PM AKDT
Nautical Twilight 6:03 AM AKDT 8:54 PM AKDT
Astronomical Twilight 4:54 AM AKDT 10:02 PM AKDT
Moon 4:57 AM AKDT (10/2) 6:11 PM AKDT (10/2)
Length of Visible Light 12h 48m
Length of Day
11h 04m
Waning Crescent, 5% of the Moon is Illuminated
Oct 2
Waning Crescent
Oct 4
New
Oct 11
First Quarter
Oct 18
Full
Oct 26
Last Quarter

Hourly Weather History & Observations

Time (AKDT) Temp. Windchill Dew Point Humidity Pressure Visibility Wind Dir Wind Speed Gust Speed Precip Events Conditions
12:16 AM 30.2 °F 26.7 °F 26.6 °F 86% 29.99 in 10.0 mi NNE 3.5 mph - N/A   Overcast
12:36 AM 30.2 °F 25.4 °F 26.6 °F 86% 29.99 in 10.0 mi NNE 4.6 mph - N/A   Overcast
12:56 AM 30.2 °F 25.4 °F 26.6 °F 86% 29.99 in 10.0 mi NNE 4.6 mph - N/A   Overcast
1:16 AM 30.2 °F 25.4 °F 26.6 °F 86% 29.99 in 10.0 mi NNE 4.6 mph - N/A   Overcast
1:36 AM 30.2 °F 26.7 °F 26.6 °F 86% 29.99 in 10.0 mi NNE 3.5 mph - N/A   Overcast
1:56 AM 30.2 °F 25.4 °F 26.6 °F 86% 29.99 in 10.0 mi NE 4.6 mph - N/A   Overcast
2:16 AM 30.2 °F 25.4 °F 26.6 °F 86% 29.99 in 10.0 mi NE 4.6 mph - N/A   Overcast
2:36 AM 30.2 °F 24.3 °F 26.6 °F 86% 29.99 in 10.0 mi NNE 5.8 mph - N/A   Overcast
2:56 AM 30.2 °F 25.4 °F 26.6 °F 86% 29.99 in 10.0 mi NNE 4.6 mph - N/A   Overcast
3:16 AM 30.2 °F 26.7 °F 26.6 °F 86% 29.98 in 10.0 mi NNE 3.5 mph - N/A   Overcast
3:36 AM 30.2 °F 25.4 °F 26.6 °F 86% 29.99 in 10.0 mi NE 4.6 mph - N/A   Overcast
3:56 AM 30.2 °F 26.7 °F 26.6 °F 86% 29.99 in 10.0 mi ENE 3.5 mph - N/A   Overcast
4:16 AM 30.2 °F 26.7 °F 26.6 °F 86% 29.98 in 10.0 mi NNE 3.5 mph - N/A   Overcast
4:36 AM 30.2 °F 26.7 °F 26.6 °F 86% 29.98 in 10.0 mi NNE 3.5 mph - N/A   Overcast
4:56 AM 30.2 °F 26.7 °F 26.6 °F 86% 29.98 in 10.0 mi North 3.5 mph - N/A   Overcast
5:16 AM 32.0 °F - 26.6 °F 80% 29.99 in 10.0 mi Calm Calm - N/A   Overcast
5:56 AM 30.2 °F 26.7 °F 26.6 °F 86% 29.98 in 10.0 mi NNE 3.5 mph - N/A   Overcast
6:16 AM 30.2 °F 26.7 °F 26.6 °F 86% 29.98 in 10.0 mi NE 3.5 mph - N/A   Overcast
6:36 AM 30.2 °F 25.4 °F 26.6 °F 86% 29.98 in 10.0 mi NNE 4.6 mph - N/A   Overcast
6:56 AM 30.2 °F 25.4 °F 26.6 °F 86% 29.98 in 10.0 mi NE 4.6 mph - N/A   Overcast
7:16 AM 30.2 °F 25.4 °F 26.6 °F 86% 29.98 in 10.0 mi NNE 4.6 mph - N/A   Overcast
7:36 AM 30.2 °F 24.3 °F 26.6 °F 86% 29.98 in 10.0 mi NE 5.8 mph - N/A   Overcast
8:16 AM 30.2 °F 26.7 °F 26.6 °F 86% 29.98 in 10.0 mi NE 3.5 mph - N/A   Overcast
8:56 AM 32.0 °F 27.5 °F 26.6 °F 80% 29.98 in 10.0 mi NE 4.6 mph - N/A   Overcast
9:36 AM 32.0 °F 25.6 °F 26.6 °F 80% 29.98 in 10.0 mi NNE 6.9 mph - N/A   Overcast
9:56 AM 33.8 °F 29.6 °F 26.6 °F 75% 29.98 in 10.0 mi NE 4.6 mph - N/A   Overcast
10:16 AM 33.8 °F 28.6 °F 28.4 °F 81% 29.98 in 10.0 mi NE 5.8 mph - N/A   Overcast
10:36 AM 33.8 °F 29.6 °F 26.6 °F 75% 29.99 in 10.0 mi NNE 4.6 mph - N/A   Overcast
10:56 AM 33.8 °F 28.6 °F 28.4 °F 81% 29.98 in 10.0 mi NE 5.8 mph - N/A   Overcast
11:16 AM 33.8 °F 28.6 °F 28.4 °F 81% 29.98 in 10.0 mi ENE 5.8 mph - N/A   Overcast
11:36 AM 35.6 °F 31.7 °F 28.4 °F 75% 29.99 in 10.0 mi ENE 4.6 mph - N/A   Mostly Cloudy
11:56 AM 35.6 °F 31.7 °F 28.4 °F 75% 29.99 in 10.0 mi East 4.6 mph - N/A   Overcast
12:16 PM 35.6 °F 31.7 °F 28.4 °F 75% 29.99 in 10.0 mi NE 4.6 mph - N/A   Overcast
12:36 PM 35.6 °F 31.7 °F 28.4 °F 75% 29.99 in 10.0 mi NE 4.6 mph - N/A   Overcast
12:56 PM 35.6 °F 30.7 °F 28.4 °F 75% 29.99 in 10.0 mi NE 5.8 mph - N/A   Overcast
1:16 PM 37.4 °F 32.8 °F 28.4 °F 70% 29.98 in 10.0 mi NE 5.8 mph - N/A   Scattered Clouds
2:16 PM 37.4 °F 32.1 °F 30.2 °F 75% 29.98 in 10.0 mi NE 6.9 mph - N/A   Partly Cloudy
3:16 PM 39.2 °F 33.6 °F 28.4 °F 65% 29.98 in 10.0 mi NE 8.1 mph - N/A   Mostly Cloudy
3:36 PM 39.2 °F 34.2 °F 28.4 °F 65% 29.97 in 10.0 mi NE 6.9 mph - N/A   Scattered Clouds
3:56 PM 41.0 °F 35.8 °F 28.4 °F 61% 29.97 in 10.0 mi ENE 8.1 mph - N/A   Overcast
4:16 PM 41.0 °F 36.4 °F 28.4 °F 61% 29.97 in 10.0 mi NE 6.9 mph - N/A   Mostly Cloudy
4:56 PM 39.2 °F 34.2 °F 28.4 °F 65% 29.96 in 10.0 mi NE 6.9 mph - N/A   Mostly Cloudy
5:16 PM 39.2 °F 35.0 °F 28.4 °F 65% 29.96 in 10.0 mi NE 5.8 mph - N/A   Scattered Clouds
5:36 PM 39.2 °F 35.0 °F 28.4 °F 65% 29.96 in 10.0 mi NNE 5.8 mph - N/A   Scattered Clouds
5:56 PM 39.2 °F 33.6 °F 28.4 °F 65% 29.96 in 10.0 mi NNE 8.1 mph - N/A   Mostly Cloudy
6:16 PM 37.4 °F 32.8 °F 28.4 °F 70% 29.96 in 10.0 mi NNE 5.8 mph - N/A   Mostly Cloudy
6:36 PM 37.4 °F 33.8 °F 28.4 °F 70% 29.96 in 10.0 mi NE 4.6 mph - N/A   Mostly Cloudy
6:56 PM 35.6 °F 31.7 °F 28.4 °F 75% 29.96 in 10.0 mi NE 4.6 mph - N/A   Partly Cloudy
7:16 PM 33.8 °F 30.8 °F 26.6 °F 75% 29.96 in 10.0 mi NE 3.5 mph - N/A   Clear
7:36 PM 33.8 °F 30.8 °F 26.6 °F 75% 29.97 in 10.0 mi NE 3.5 mph - N/A   Clear
7:56 PM 33.8 °F 30.8 °F 26.6 °F 75% 29.97 in 10.0 mi NE 3.5 mph - N/A   Clear
8:16 PM 32.0 °F 28.7 °F 26.6 °F 80% 29.97 in 10.0 mi NE 3.5 mph - N/A   Clear
8:36 PM 30.2 °F 26.7 °F 24.8 °F 80% 29.97 in 10.0 mi NNE 3.5 mph - N/A   Clear
8:56 PM 30.2 °F 25.4 °F 26.6 °F 86% 29.97 in 10.0 mi NE 4.6 mph - N/A   Clear
9:16 PM 30.2 °F 26.7 °F 26.6 °F 86% 29.96 in 10.0 mi NE 3.5 mph - N/A   Clear
9:36 PM 30.2 °F 26.7 °F 24.8 °F 80% 29.96 in 10.0 mi NE 3.5 mph - N/A   Clear
9:56 PM 30.2 °F 25.4 °F 26.6 °F 86% 29.96 in 10.0 mi NNE 4.6 mph - N/A   Clear
10:16 PM 30.2 °F 26.7 °F 26.6 °F 86% 29.96 in 10.0 mi NNE 3.5 mph - N/A   Clear
10:36 PM 30.2 °F 25.4 °F 24.8 °F 80% 29.95 in 10.0 mi NNE 4.6 mph - N/A   Clear
10:56 PM 30.2 °F 25.4 °F 26.6 °F 86% 29.95 in 10.0 mi NE 4.6 mph - N/A   Clear
11:16 PM 30.2 °F 25.4 °F 26.6 °F 86% 29.95 in 10.0 mi NE 4.6 mph - N/A   Clear
11:36 PM 30.2 °F 26.7 °F 24.8 °F 80% 29.95 in 10.0 mi NE 3.5 mph - N/A   Clear
11:56 PM 28.4 °F 23.3 °F 24.8 °F 86% 29.95 in 10.0 mi NE 4.6 mph - N/A   Clear